Home > Weather > Brentwood > Past weeks

Flag for United Kingdom Past Weather in Brentwood, England, United Kingdom — Yesterday and Last 2 Weeks

Now
74 °F

Mild.


Feels Like: 77 °F
Forecast: 58 / 72 °F
Wind: 10 mph from Southwest

Location: Gravesend-Broadness

Current Time: Jul 25, 2016 at 5:03:05 PM

Latest Report: Jul 25, 2016 at 4:00 PM


Visibility: N/A

Pressure: 30.08 "Hg

Humidity: 44%

Dew Point: 50 °F

Location of BrentwoodLocation

Past Weather in Brentwood — Graph

°F

Brentwood Temperature Yesterday

Maximum temperature yesterday: 76 °F (at 4:00 PM)
Minimum temperature yesterday: 57 °F (at 4:00 AM)
Average temperature yesterday: 67 °F

High & Low Weather Summary for the Past Weeks

 TemperatureHumidityPressure
High89 °F (Jul 19, 4:00 PM)99% (Jul 19, 5:00 AM)30.32 "Hg (Jul 19, 5:00 AM)
Low52 °F (Jul 15, 12:00 AM)39% (Jul 18, 4:00 PM)29.70 "Hg (Jul 11, 6:00 AM)
Average67 °F73%30.05 "Hg
* Reported Jul 10 3:00 PM — Jul 25 3:00 PM, Brentwood, Weather by CustomWeather, © 2016

Note: Actual official high and low records may vary slightly from our data, if they occured in-between our weather recording intervals... More about our weather records

Advertising

Brentwood Weather History for the Previous 24 Hours

Scroll right to see more
 ConditionsComfort  
Time TempWeatherWind HumidityBarometerVisibility
3:00 PM
Mon, Jul 25
73 °FMild.10 mph46%30.09 "HgN/A
2:00 PM74 °FMild.9 mph49%30.09 "HgN/A
1:00 PM75 °FMild.10 mph50%30.09 "HgN/A
12:00 PM69 °FMild.9 mph57%30.09 "HgN/A
11:00 AM69 °FMild.9 mph65%30.09 "HgN/A
10:00 AM68 °FMild.8 mph70%30.09 "HgN/A
9:00 AM65 °FMild.9 mph75%30.09 "HgN/A
8:00 AM63 °FMild.9 mph78%30.09 "HgN/A
7:00 AM62 °FCool.10 mph82%30.08 "HgN/A
6:00 AM61 °FCool.9 mph82%30.07 "HgN/A
5:00 AM62 °FCool.10 mph78%30.06 "HgN/A
4:00 AM63 °FMild.9 mph76%30.06 "HgN/A
3:00 AM64 °FMild.14 mph74%30.06 "HgN/A
2:00 AM66 °FMild.7 mph88%30.05 "HgN/A
1:00 AM66 °FMild.7 mph89%30.06 "HgN/A
12:00 AM66 °FMild.7 mph87%30.06 "HgN/A
11:00 PM
Sun, Jul 24
66 °FMild.6 mph84%30.06 "HgN/A
10:00 PM67 °FMild.9 mph81%30.06 "HgN/A
9:00 PM67 °FMild.8 mph79%30.05 "HgN/A
8:00 PM68 °FMild.9 mph76%30.05 "HgN/A
7:00 PM71 °FMild.9 mph72%30.04 "HgN/A
6:00 PM73 °FMild.10 mph65%30.04 "HgN/A
5:00 PM73 °FMild.13 mph64%30.05 "HgN/A
Weather by CustomWeather, © 2016

See weather overviewHow to use our weather pages